Location: Ferchesar
(52.6477°N, 12.4298°E)
Time: 02:54:36
(UTC+01:00)

Explorer 7 - Pass Details

Date: 09 December 2021
Orbit: 483 x 674 km, 50.3° (Epoch: 21 January)

Event Time Altitude Azimuth Distance (km) Brightness Sun altitude
Rises 04:53:49 0° 235° (SW) 2,876 - -28.3°
Reaches altitude 10° 04:56:16 10° 228° (SW) 1,940 - -27.9°
Maximum altitude 05:00:25 40° 159° (SSE) 849 - -27.3°
Exits shadow 05:00:56 39° 140° (SE) 871 8.0 -27.2°
Drops below altitude 10° 05:04:21 10° 89° (E) 1,830 10.5 -26.7°
Sets 05:06:36 0° 82° (E) 2,692 11.6 -26.3°
